Satellite: TISAT-1
Catalog number: 36799
Epoch time: 11306.87116154
Element set: 0379
Inclination: 098.0886 deg
RA of node: 016.4145 deg
Eccentricity: 0.0015217
Arg of perigee: 184.8817 deg
Mean anomaly: 175.2245 deg
Mean motion: 14.80955581 rev/day
Decay rate: 2.625e-05 rev/day^2
Epoch rev: 07083
Checksum: 325
Satellite: STUDSAT
Catalog number: 36801
Epoch time: 11306.92001180
Element set: 0271
Inclination: 098.0924 deg
RA of node: 016.4525 deg
Eccentricity: 0.0013807
Arg of perigee: 173.5281 deg
Mean anomaly: 186.6141 deg
Mean motion: 14.81643429 rev/day
Decay rate: 6.963e-05 rev/day^2
Epoch rev: 07083
Checksum: 280
Satellite: OOREOS
Catalog number: 37224
Epoch time: 11283.12196780
Element set: 0302
Inclination: 071.9656 deg
RA of node: 145.3580 deg
Eccentricity: 0.0018647
Arg of perigee: 057.9354 deg
Mean anomaly: 302.3616 deg
Mean motion: 14.77183931 rev/day
Decay rate: 9.55e-06 rev/day^2
Epoch rev: 04784
Checksum: 307
Satellite: FO-69
Catalog number: 37227
Epoch time: 11306.46083341
Element set: 0014
Inclination: 071.9687 deg
RA of node: 094.3610 deg
Eccentricity: 0.0014766
Arg of perigee: 028.8783 deg
Mean anomaly: 331.3193 deg
Mean motion: 14.76727385 rev/day
Decay rate: 1.152e-05 rev/day^2
Epoch rev: 00247
Checksum: 306
Satellite: NANOSALD
Catalog number: 37361
Epoch time: 11242.25215765
Element set: 0351
Inclination: 071.9735 deg
RA of node: 221.4469 deg
Eccentricity: 0.0025730
Arg of perigee: 245.3422 deg
Mean anomaly: 114.7284 deg
Mean motion: 15.22200108 rev/day
Decay rate: 1.80112e-03 rev/day^2
Epoch rev: 03331
Checksum: 248
Satellite: FO-70
Catalog number: 37380
Epoch time: 11306.49654346
Element set: 0015
Inclination: 071.9711 deg
RA of node: 094.5527 deg
Eccentricity: 0.0016849
Arg of perigee: 016.1778 deg
Mean anomaly: 343.9927 deg
Mean motion: 14.76487598 rev/day
Decay rate: 7.85e-06 rev/day^2
Epoch rev: 00237
Checksum: 340
/EX
SB KEPS @ AMSAT $ORB11307.W
Orbital Elements 11307.WEATHER
HR AMSAT ORBITAL ELEMENTS FOR WEATHER SATELLITES
FROM WA5QGD FORT WORTH,TX November 3, 2011
Send Subscribe/unsubscribe to KEPS at http://www.amsat.org/mailman/listinfo/keps
BID: ORB11307.W
TO ALL RADIO AMATEURS BT
Satellite: NOAA-10
Catalog number: 16969
Epoch time: 11306.92514946
Element set: 0697
Inclination: 098.6082 deg
RA of node: 334.7448 deg
Eccentricity: 0.0012164
Arg of perigee: 175.8266 deg
Mean anomaly: 184.3018 deg
Mean motion: 14.27491370 rev/day
Decay rate: 2.6e-07 rev/day^2
Epoch rev: 30744
Checksum: 320
Satellite: NOAA-11
Catalog number: 19531
Epoch time: 11306.87228774
Element set: 0686
Inclination: 098.7475 deg
RA of node: 031.6763 deg
Eccentricity: 0.0011315
Arg of perigee: 148.8131 deg
Mean anomaly: 211.3728 deg
Mean motion: 14.14933323 rev/day
Decay rate: 1.47e-06 rev/day^2
Epoch rev: 19236
Checksum: 300
Satellite: NOAA-12
Catalog number: 21263
Epoch time: 11306.97753397
Element set: 0201
Inclination: 098.7455 deg
RA of node: 324.5324 deg
Eccentricity: 0.0014413
Arg of perigee: 138.6775 deg
Mean anomaly: 221.5496 deg
Mean motion: 14.25448983 rev/day
Decay rate: -2.0e-07 rev/day^2
Epoch rev: 06418
Checksum: 302
Satellite: MET-3/5
Catalog number: 21655
Epoch time: 11306.62441362
Element set: 0250
Inclination: 082.5559 deg
RA of node: 312.9631 deg
Eccentricity: 0.0013679
Arg of perigee: 165.6196 deg
Mean anomaly: 194.5338 deg
Mean motion: 13.17030023 rev/day
Decay rate: 5.1e-07 rev/day^2
Epoch rev: 97194
Checksum: 292
Satellite: MET-2/21
Catalog number: 22782
Epoch time: 11306.87994409
Element set: 0247
Inclination: 082.5488 deg
RA of node: 212.8377 deg
Eccentricity: 0.0024064
Arg of perigee: 071.0097 deg
Mean anomaly: 289.3663 deg
Mean motion: 13.83667896 rev/day
Decay rate: 8.6e-07 rev/day^2
Epoch rev: 91773
Checksum: 351
Satellite: OKEAN-4
Catalog number: 23317
Epoch time: 11306.94163698
Element set: 0736
Inclination: 082.5392 deg
RA of node: 243.5511 deg
Eccentricity: 0.0022964
Arg of perigee: 025.8427 deg
Mean anomaly: 334.3929 deg
Mean motion: 14.83281799 rev/day
Decay rate: 2.001e-05 rev/day^2
Epoch rev: 92111
Checksum: 305
Satellite: NOAA-14
Catalog number: 23455
Epoch time: 11306.95582935
Element set: 0683
Inclination: 098.8451 deg
RA of node: 028.1566 deg
Eccentricity: 0.0008648
Arg of perigee: 244.5973 deg
Mean anomaly: 115.4301 deg
Mean motion: 14.13844926 rev/day
Decay rate: 8.5e-07 rev/day^2
Epoch rev: 86868
Checksum: 338
Satellite: NOAA-15
Catalog number: 25338
Epoch time: 11306.91578887
Element set: 0005
Inclination: 098.6699 deg
RA of node: 291.2609 deg
Eccentricity: 0.0011489
Arg of perigee: 052.3547 deg
Mean anomaly: 307.8681 deg
Mean motion: 14.24974274 rev/day
Decay rate: 3.39e-06 rev/day^2
Epoch rev: 70048
Checksum: 342
Satellite: RESURS
Catalog number: 25394
Epoch time: 11306.92759558
Element set: 0944
Inclination: 098.3061 deg
RA of node: 302.3548 deg
Eccentricity: 0.0001340
Arg of perigee: 146.5988 deg
Mean anomaly: 213.5277 deg
Mean motion: 14.24249707 rev/day
Decay rate: 9.0e-07 rev/day^2
Epoch rev: 69205
Checksum: 310
Satellite: FENGYUN1
Catalog number: 25730
Epoch time: 11306.95093655
Element set: 0472
Inclination: 098.8267 deg
RA of node: 265.1895 deg
Eccentricity: 0.0023520
Arg of perigee: 291.8652 deg
Mean anomaly: 068.0010 deg
Mean motion: 14.08991799 rev/day
Decay rate: 2.200e-05 rev/day^2
Epoch rev: 64260
Checksum: 307
Satellite: OKEAN-0
Catalog number: 25860
Epoch time: 11306.93200012
Element set: 0476
Inclination: 097.9036 deg
RA of node: 269.7099 deg
Eccentricity: 0.0000575
Arg of perigee: 055.3728 deg
Mean anomaly: 304.7535 deg
Mean motion: 14.73911455 rev/day
Decay rate: 8.49e-06 rev/day^2
Epoch rev: 66109
Checksum: 309
Satellite: NOAA-16
Catalog number: 26536
Epoch time: 11306.90088857
Element set: 0487
Inclination: 099.1267 deg
RA of node: 340.1721 deg
Eccentricity: 0.0010694
Arg of perigee: 007.3772 deg
Mean anomaly: 352.7550 deg
Mean motion: 14.12660782 rev/day
Decay rate: -6.3e-07 rev/day^2
Epoch rev: 57294
Checksum: 314
Satellite: NOAA-17
Catalog number: 27453
Epoch time: 11306.84924629
Element set: 0472
Inclination: 098.3645 deg
RA of node: 340.0895 deg
Eccentricity: 0.0012704
Arg of perigee: 102.2938 deg
Mean anomaly: 257.9655 deg
Mean motion: 14.24337846 rev/day
Decay rate: 3.10e-06 rev/day^2
Epoch rev: 48639
Checksum: 325
Satellite: NOAA-18
Catalog number: 28654
Epoch time: 11306.82302379
Element set: 0949
Inclination: 099.0155 deg
RA of node: 258.4243 deg
Eccentricity: 0.0015213
Arg of perigee: 074.8061 deg
Mean anomaly: 285.4796 deg
Mean motion: 14.11539543 rev/day
Decay rate: 8.5e-07 rev/day^2
Epoch rev: 33248
Checksum: 317
Satellite: NOAA-19
Catalog number: 33591
Epoch time: 11306.85093271
Element set: 0141
Inclination: 098.8406 deg
RA of node: 244.7490 deg
Eccentricity: 0.0013563
Arg of perigee: 306.9239 deg
Mean anomaly: 053.0697 deg
Mean motion: 14.11229789 rev/day
Decay rate: 2.6e-07 rev/day^2
Epoch rev: 14094
Checksum: 309
/EX
SB KEPS @ AMSAT $ORB11307.M
Orbital Elements 11307.MISC
HR AMSAT ORBITAL ELEMENTS FOR MANNED AND MISCELLANEOUS SATELLITES
FROM WA5QGD FORT WORTH,TX November 3, 2011
Send Subscribe/unsubscribe to KEPS at http://www.amsat.org/mailman/listinfo/keps
BID: ORB11307.M
TO ALL RADIO AMATEURS BT
